Terminal Aerodrome Forecast
Issued by NWS

Home | Current Version | Previous Version | Text Only | Print | Product List | Glossary On
Versions: 1 2 3 4 5 6 7 8 9 10 11 12
000
FTUS43 KOAX 021120
TAFCDR
TAF
KCDR 021120Z 0212/0312 05008KT P6SM SCT080
     FM022200 07013KT P6SM SCT150=

USA.gov is the U.S. government's official web portal to all federal, state and local government web resources and services.